Simultaneous Nadir Overpasses (SNOs) Predictions

Prediction of SNOs between NOAA-19 and NPP Satellite Orbit:

Table of predicted SNOs for the next 14.0 days since TLE Epoch: 5/11/2012
Index Date (NOAA-19) Time (NOAA-19) NOAA-19 Lat,Lon Date (NPP) Time (NPP) NPP Lat,Lon Distance(km) Time Diff (sec)
1 05/15/2012 17:27:33 -80.55, 52.50 05/15/2012 17:28:40 -80.55, 52.35 2.89 67
2 05/15/2012 18:18:38 80.54,-140.19 05/15/2012 18:19:25 80.54,-140.24 0.93 47
3 05/15/2012 19:09:39 -80.56, 26.76 05/15/2012 19:10:10 -80.56, 26.92 3.03 31
4 05/15/2012 20:00:39 80.45,-164.27 05/15/2012 20:00:51 80.45,-164.35 1.49 12
5 05/15/2012 20:51:40 -80.47, 2.67 05/15/2012 20:51:36 -80.46, 2.81 2.54 4
6 05/15/2012 21:42:39 80.32, 171.94 05/15/2012 21:42:16 80.33, 171.84 2.03 23
7 05/15/2012 22:33:40
